CAPE
0 0 0 82 165 452 477 317 170 247 185 64 175 240 382 421 566 637 140 199 520 738 1092 1260 1925 1972 1984 2109 1994 1981 2278 2280 2163 2041 2111 2369 2100 1836 1583 1820 1591 1763 1333 1466 1726 1521 1701 2010 2152
0 1 69 606 409 642 282 239 472 253 175 72 124 214 296 416 198 116 469 568 568 824 1010 1111 1845 2108 2209 2008 2441 2344 1984 2081 2114 2064 2205 2040 1929 1797 1810 1674 1635 1842 1761 1445 1726 1553 1611 1955 2015
47 29 421 747 798 75 370 122 354 180 87 140 316 458 345 298 244 417 495 343 505 475 664 1140 2549 2424 2285 2407 2122 2273 2279 2248 2229 2067 2029 1781 1806 1819 1658 1598 1756 1850 1696 1681 1599 1816 1874 1565 1987
241 249 457 836 652 113 556 206 437 219 243 470 275 401 203 355 325 293 310 299 70 80 518 1734 2510 1993 2436 2120 2225 2262 2208 2276 2069 2130 1973 1931 2137 1856 1873 1783 1649 1848 1740 1682 1690 1569 1558 1643 1458
259 609 494 811 608 222 559 359 115 341 280 468 488 258 228 257 341 296 140 203 57 289 673 1151 2416 2125 2088 2185 2107 2227 2058 2156 2069 1996 2084 2053 1976 1753 1756 1782 1655 1646 1686 1589 1697 1710 1582 1623 1517
367 581 713 676 222 108 388 326 137 257 410 434 324 154 156 256 223 208 182 175 193 228 400 1165 1819 1971 2134 2069 2280 2079 2025 2091 1832 2327 2206 2056 2243 1895 1752 1609 1644 1784 1510 1445 1535 1563 1540 1474 1496
203 677 376 204 219 326 597 564 347 408 458 574 265 355 198 211 184 177 123 58 32 65 250 983 1184 1825 1924 2152 2101 1973 2161 2090 2570 2282 2567 2725 2544 2096 2070 2069 1489 1297 1389 1170 1284 1597 1641 1682 1577
491 594 580 395 253 13 353 617 556 458 556 590 632 332 190 275 255 213 241 33 58 98 303 1148 1020 920 1604 1696 1952 2028 2018 2067 2318 2551 2609 2545 2077 1376 1555 2162 1960 1169 1419 1179 1306 1517 1729 1731 1549
245 674 680 268 101 292 511 680 575 558 572 575 669 414 189 149 217 136 80 17 224 61 170 338 573 846 2013 1892 1952 2013 1965 1743 1882 1875 1863 1735 1452 1619 1253 2118 1885 1231 1338 1311 1402 1532 1504 1581 1487
46 694 567 345 285 98 526 598 535 518 459 587 754 446 170 103 212 232 37 9 136 57 8 191 899 808 1573 928 1975 2109 1684 1481 1652 1811 1783 2397 1130 1875 1067 1642 2013 1258 1597 1602 1441 177 1116 1510 1496
14 83 569 189 301 321 350 561 410 442 385 501 541 294 149 110 186 55 47 18 27 61 44 187 887 1022 757 1130 1901 1786 1506 1710 1789 2416 1461 2079 1624 1886 1006 1381 1373 1565 1674 1168 1374 1270 934 1329 1294
5 41 64 75 524 524 317 344 351 245 302 565 527 229 196 150 115 25 43 53 31 65 48 301 414 1360 772 1149 1348 982 1552 1236 1306 1675 1922 1962 661 576 1612 930 1982 911 1063 1364 645 1284 705 856 877
6 19 39 307 594 310 66 228 13 144 16 490 474 197 192 165 68 44 70 56 27 19 53 322 410 2356 782 1006 592 970 523 822 1534 1597 1036 1372 1973 1213 1963 491 890 824 1543 1160 597 1495 1098 644 1141
5 0 19 270 476 676 221 150 229 175 283 601 361 190 177 203 75 120 95 55 31 19 145 407 398 1646 2032 1952 2221 895 1851 774 1494 1783 1532 703 2015 2502 2456 1017 1089 843 1223 1174 1421 1709 1604 1230 512
0 0 0 6 520 464 264 178 241 455 345 417 471 277 228 243 162 176 182 79 35 48 352 446 395 925 2062 1391 1550 1888 1577 1315 440 2095 2462 1739 1262 2365 1799 746 961 981 1970 1664 1554 2383 1136 768 1043
0 0 0 0 31 430 363 440 123 457 568 492 576 308 391 275 191 227 186 59 46 29 675 358 14 556 1272 1797 2305 2038 1488 1540 1529 1391 2150 2333 1110 2923 965 1275 912 1487 1001 1814 317 1789 1409 590 675
0 0 0 0 10 124 438 325 336 300 665 574 547 396 339 363 315 312 146 68 57 180 654 429 683 875 1114 1897 1711 1740 1507 2126 1495 2254 1838 2748 2655 2328 1855 696 1538 894 2255 2242 1506 71 1819 1065 1073
0 0 0 0 0 48 169 231 269 87 412 529 485 500 349 263 314 360 195 40 87 249 481 518 1021 1608 1675 2058 2669 1349 1865 1487 1428 2590 2546 2960 2374 2656 1269 1476 2246 2352 249 766 1745 139 897 556 476
0 0 0 0 0 43 57 165 94 109 265 352 448 719 444 354 479 444 275 32 166 220 387 736 1397 2015 1532 1676 1561 1341 1193 1973 622 801 1627 3043 2605 2507 1524 1862 2261 2248 500 623 1806 2292 1618 603 1285
0 0 0 0 0 97 331 139 61 0 19 310 431 471 682 389 304 394 331 62 95 274 397 1155 1285 1942 1402 1807 1814 1696 1330 1558 968 1290 2159 2641 2666 3037 2283 1705 2273 907 2376 2260 1603 449 719 144 373
0 0 0 0 0 81 90 70 63 29 26 284 518 321 473 609 489 429 324 163 148 283 555 1031 1310 1798 1454 1825 1592 2492 2795 2238 1720 2489 2474 2791 2832 3028 2162 2643 2017 2484 1003 1608 2059 2369 287 660 1160
0 0 0 0 0 0 15 140 11 47 196 14 207 397 371 612 603 454 352 291 123 359 746 989 1494 2120 1387 2148 1296 1976 1501 1492 1582 1832 2237 2492 3182 3068 2913 2879 3201 2380 1844 1445 2907 2522 1195 238 1136
0 0 0 0 0 0 0 7 206 179 51 4 48 313 281 487 601 519 331 358 176 498 675 976 1357 2024 1351 1434 2023 1852 1704 1424 2190 1598 2761 2624 3641 3526 2908 3649 3279 2612 2553 2669 2805 2402 2782 2426 1750
0 0 0 0 0 0 0 0 0 254 101 15 7 309 387 268 564 742 494 447 316 426 528 1119 1310 1665 1684 1391 1522 2150 1428 2410 1941 1956 1796 2478 2586 2836 3563 3188 2927 2690 2826 2445 2658 3033 2904 3246 2942
0 0 0 0 0 0 0 0 0 32 167 11 0 372 687 578 558 830 857 709 538 378 517 836 1350 1475 1562 1521 1089 2157 1602 1835 2870 3104 1870 1539 2041 1749 2827 3776 3013 2932 2950 2907 2822 3381 3287 3219 3079
0 0 0 0 0 0 0 0 0 0 309 297 128 168 62 809 719 764 910 938 820 633 533 719 1405 1571 1586 1925 1102 1318 2241 1472 1729 2759 1698 2752 1530 1976 2562 3026 3071 3338 3195 3110 3167 2710 3115 3016 3219
0 0 0 0 0 0 0 0 0 0 0 484 121 29 8 182 754 883 954 932 1161 959 709 897 1373 1652 1903 1667 1859 1048 1996 1981 1107 2265 2808 2042 2510 2199 2888 3030 3392 3577 3050 2957 3161 2469 2783 2448 2952
0 0 1 0 0 0 0 0 0 0 0 0 186 157 175 93 189 434 1013 988 1168 1116 1116 978 1462 1772 2042 1745 2010 1635 997 1692 1777 1052 2916 2133 2688 2442 2932 3258 3049 3042 3677 3528 3247 2774 2768 2955 2509
0 0 0 1 13 0 0 0 0 30 0 0 327 159 4 0 5 102 339 1091 1047 1132 1321 1203 1290 1984 2321 2285 1936 1917 1619 1258 1141 1616 1283 2098 2105 4008 3311 3729 3208 3175 2970 3717 3618 3099 2837 2944 2787
0 0 0 16 1 6 2 0 0 0 10 0 0 259 160 91 55 63 46 435 1078 1103 1145 1403 1361 1702 2218 2398 2194 2046 2300 1675 1405 884 2044 2625 3407 2866 4310 3346 3799 3060 3021 3160 3277 3143 2147 2991 2843
CIN
-0 -0 -0 -10 -1 -0 -0 -6 -1 -0 -4 -1 -6 -14 -5 -49 -1 -10 -66 -17 -4 -0 -0 -0 -0 -0 -1 -0 -0 -0 -0 -0 -0 -0 -0 -0 -0 -0 -0 -0 -0 -0 -0 -0 -0 -0 -0 -0 -0
-0 -0 -21 -1 -0 -0 -4 -40 -2 -7 -1 -2 -34 -2 -12 -22 -93 -102 -4 -0 -4 -0 -0 -0 -2 -1 -0 -0 -0 -0 -0 -0 -0 -0 -0 -2 -0 -0 -0 -0 -2 -0 -0 -0 -0 -0 -0 -0 -0
-52 -13 -3 -0 -0 -17 -4 -8 -79 -4 -1 -1 -26 -36 -17 -21 -44 -32 -9 -7 -2 -1 -0 -6 -0 -0 -0 -0 -0 -0 -0 -0 -0 -0 -0 -0 -0 -0 -0 -1 -0 -1 -0 -0 -0 -0 -0 -0 -0
-1 -1 -0 -0 -1 -17 -42 -70 -29 -3 -1 -8 -19 -0 -12 -1 -19 -22 -9 -6 -53 -28 -12 -1 -0 -0 -0 -0 -0 -0 -0 -0 -0 -0 -0 -0 -0 -0 -0 -0 -0 -0 -0 -0 -0 -0 -0 -0 -8
-10 -1 -0 -0 -2 -1 -22 -11 -15 -0 -1 -0 -4 -1 -6 -7 -2 -6 -6 -0 -76 -10 -25 -1 -0 -0 -0 -0 -0 -0 -0 -0 -0 -0 -0 -0 -0 -0 -0 -0 -0 -0 -0 -0 -0 -0 -0 -0 -11
-2 -0 -0 -0 -0 -2 -0 -8 -10 -5 -3 -4 -17 -26 -2 -5 -4 -3 -1 -2 -15 -44 -21 -0 -0 -0 -0 -0 -0 -0 -0 -0 -0 -0 -0 -0 -0 -0 -0 -0 -0 -0 -0 -0 -0 -0 -0 -9 -22
-3 -0 -21 -32 -26 -1 -13 -1 -2 -15 -2 -0 -44 -17 -5 -3 -10 -2 -3 -47 -52 -50 -42 -2 -0 -0 -0 -0 -0 -0 -0 -0 -0 -0 -0 -0 -0 -0 -0 -0 -0 -2 -3 -5 -11 -6 -8 -9 -31
-0 -0 -2 -32 -34 -88 -30 -34 -3 -27 -1 -19 -37 -45 -32 -6 -6 -6 -0 -0 -30 -28 -13 -0 -0 -1 -1 -0 -0 -0 -0 -0 -0 -0 -0 -5 -8 -12 -5 -0 -0 -11 -2 -11 -10 -7 -18 -33 -52
-3 -0 -1 -3 -206 -12 -16 -0 -5 -19 -0 -0 -9 -49 -66 -49 -8 -6 -11 -4 -13 -17 -5 -4 -0 -7 -2 -0 -0 -0 -0 -8 -8 -4 -12 -24 -14 -4 -3 -1 -1 -20 -11 -4 -17 -12 -14 -37 -55
-14 -0 -8 -32 -34 -29 -14 -10 -1 -3 -5 -4 -3 -24 -51 -59 -11 -1 -10 -0 -15 -26 -2 -0 -9 -17 -7 -0 -3 -2 -18 -21 -12 -7 -24 -34 -55 -10 -21 -20 -11 -30 -9 -9 -43 -120 -39 -34 -34
-38 -28 -87 -125 -22 -8 -21 -1 -0 -3 -7 -43 -84 -56 -72 -58 -12 -13 -36 -2 -0 -33 -2 -4 -23 -15 -5 -27 -10 -7 -16 -10 -23 -4 -45 -33 -35 -24 -18 -42 -37 -29 -14 -40 -77 -72 -164 -66 -63
-1 -39 -52 -11 -6 -8 -88 -17 -39 -12 -95 -8 -86 -98 -72 -49 -34 -17 -35 -50 -9 -28 -9 -5 -12 -9 -37 -19 -7 -26 -12 -8 -12 -9 -45 -48 -134 -187 -57 -108 -11 -98 -44 -6 -28 -46 -90 -106 -159
-0 -31 -24 -33 -2 -66 -16 -72 -652 -46 -2 -2 -78 -89 -58 -44 -44 -15 -13 -62 -69 -1 -2 -11 -25 -3 -53 -74 -68 -39 -79 -6 -21 -18 -113 -98 -26 -91 -12 -154 -87 -151 -35 -43 -46 -37 -96 -16 -60
-1 -0 -12 -3 -2 -31 -23 -123 -8 -122 -154 -1 -80 -80 -34 -26 -56 -17 -5 -40 -74 -2 -6 -12 -18 -1 -4 -43 -9 -62 -29 -28 -31 -14 -59 -138 -31 -19 -11 -89 -70 -123 -90 -84 -49 -20 -41 -61 -24
-0 -0 -0 -2 -6 -1 -12 -35 -20 -34 -6 -0 -38 -33 -46 -17 -12 -10 -6 -10 -50 -12 -11 -17 -20 -2 -5 -41 -15 -6 -18 -7 -34 -10 -5 -69 -62 -13 -54 -120 -108 -120 -58 -36 -72 -27 -78 -117 -54
-0 -0 -0 -0 -33 -3 -1 -1 -74 -58 -12 -1 -3 -32 -14 -20 -5 -3 -1 -26 -54 -29 -12 -17 -2 -1 -5 -19 -3 -15 -32 -31 -19 -37 -9 -0 -51 -13 -93 -78 -92 -63 -93 -59 -19 -48 -46 -34 -73
-0 -0 -0 -0 -17 -0 -3 -68 -60 -106 -12 -0 -0 -11 -18 -14 -8 -0 -5 -13 -44 -7 -11 -12 -5 -2 -8 -29 -6 -16 -18 -18 -54 -17 -14 -1 -3 -1 -20 -141 -76 -96 -29 -15 -44 -59 -36 -41 -41
-0 -0 -0 -0 -0 -5 -0 -46 -128 -133 -8 -2 -0 -3 -13 -21 -4 -1 -1 -33 -29 -8 -11 -11 -3 -7 -9 -3 -3 -35 -17 -35 -48 -30 -12 -3 -25 -7 -108 -62 -18 -27 -154 -106 -31 -49 -51 -57 -101
-0 -0 -0 -0 -0 -2 -5 -26 -141 -10 -23 -0 -5 -0 -6 -14 -0 -0 -1 -32 -9 -13 -13 -11 -7 -12 -9 -3 -2 -13 -15 -13 -88 -83 -36 -4 -22 -20 -86 -65 -21 -17 -117 -107 -43 -17 -5 -58 -43
-0 -0 -0 -0 -0 -0 -64 -37 -17 -0 -2 -23 -1 -0 -0 -5 -2 -1 -1 -44 -44 -27 -34 -7 -9 -13 -14 -3 -12 -10 -44 -33 -56 -62 -23 -5 -2 -4 -13 -44 -30 -28 -13 -29 -64 -130 -69 -144 -107
-0 -0 -0 -0 -0 -0 -2 -125 -20 -21 -80 -50 -21 -0 -0 -1 -2 -2 -8 -34 -44 -44 -29 -6 -12 -9 -10 -5 -14 -8 -6 -37 -17 -17 -8 -2 -2 -1 -9 -27 -15 -11 -62 -49 -7 -12 -26 -67 -58
-0 -0 -0 -0 -0 -0 -0 -1 -133 -64 -151 -5 -7 -2 -0 -0 -0 -3 -17 -31 -74 -53 -21 -15 -7 -6 -12 -5 -11 -3 -8 -17 -20 -21 -17 -13 -3 -3 -3 -8 -7 -7 -63 -63 -12 -11 -49 -120 -40
-0 -0 -0 -0 -0 -0 -0 -0 -29 -100 -30 -275 -2 -3 -2 -0 -0 -23 -78 -61 -58 -34 -37 -26 -9 -5 -10 -16 -7 -7 -15 -15 -23 -18 -29 -27 -8 -2 -4 -7 -4 -15 -27 -31 -21 -9 -6 -28 -49
-0 -0 -0 -0 -0 -0 -0 -0 -0 -62 -82 -52 -37 -9 -4 -2 -0 -9 -57 -36 -32 -21 -42 -13 -20 -7 -6 -20 -30 -13 -29 -14 -12 -19 -32 -16 -13 -8 -4 -10 -23 -9 -5 -9 -10 -3 -8 -9 -17
-0 -0 -0 -0 -0 -0 -0 -0 -0 -5 -91 -75 -120 -50 -1 -5 -1 -7 -17 -22 -44 -61 -89 -66 -44 -18 -11 -20 -33 -13 -16 -42 -24 -15 -27 -29 -14 -17 -16 -15 -28 -12 -9 -2 -7 -4 -9 -6 -14
-0 -0 -0 -0 -0 -0 -0 -0 -0 -0 -29 -175 -232 -213 -3 -1 -0 -6 -45 -74 -98 -99 -110 -102 -60 -46 -21 -3 -59 -41 -11 -29 -29 -9 -20 -11 -24 -21 -40 -22 -18 -14 -7 -5 -8 -9 -4 -16 -10
-0 -0 -0 -0 -0 -0 -0 -0 -0 -0 -0 -25 -19 -181 -128 -17 -4 -4 -11 -66 -81 -86 -136 -124 -82 -61 -19 -25 -17 -60 -12 -18 -35 -24 -14 -19 -28 -13 -60 -32 -9 -6 -20 -13 -12 -17 -16 -19 -9
-0 -0 -0 -0 -0 -0 -0 -0 -0 -0 -0 -0 -38 -236 -226 -70 -20 -0 -11 -35 -52 -88 -80 -90 -57 -60 -29 -37 -9 -40 -86 -40 -32 -65 -19 -30 -18 -38 -24 -30 -30 -16 -5 -7 -23 -15 -25 -13 -21
-0 -0 -0 -0 -0 -0 -0 -0 -0 -6 -0 -0 -37 -178 -14 -0 -120 -110 -3 -15 -73 -49 -49 -81 -64 -25 -10 -2 -9 -11 -41 -55 -65 -27 -56 -33 -36 -9 -16 -4 -10 -11 -11 -5 -9 -17 -18 -20 -23
-0 -0 -0 -0 -0 -1 -0 -0 -0 -0 -8 -0 -0 -147 -228 -299 -182 -18 -95 -20 -57 -57 -69 -81 -79 -46 -27 -14 -7 -10 -5 -37 -53 -99 -17 -14 -7 -19 -4 -19 -7 -11 -6 -9 -9 -8 -13 -10 -13
Wind_Speed
nan nan nan nan 3 6 5 3 14 12 8 nan 13 17 14 10 8 6 17 15 17 14 11 12 9 9 6 3 3 4 3 5 5 5 4 2 1 3 5 6 7 7 7 6 7 7 7 8 8
nan nan nan 2 4 3 3 7 18 15 12 nan 17 15 19 19 15 18 14 18 18 15 13 7 7 7 4 2 2 4 4 5 5 4 3 1 4 5 5 6 5 7 5 7 7 6 9 8 6
nan nan 4 4 2 nan 3 19 27 15 nan 15 11 12 16 17 21 15 21 19 18 15 11 5 5 6 5 3 1 2 3 2 4 3 2 2 5 5 5 6 5 8 5 6 5 4 5 7 6
7 7 6 5 4 17 16 19 15 18 12 24 16 19 23 18 14 22 23 23 nan nan 11 5 6 6 4 4 2 1 1 3 3 5 4 5 6 7 8 8 7 6 4 3 1 3 3 4 4
5 5 6 5 2 17 16 5 14 15 9 17 19 18 12 12 20 24 21 21 nan 15 11 5 4 5 5 3 2 2 3 3 3 6 5 7 8 9 10 9 7 6 5 7 7 5 6 6 6
5 5 5 2 13 15 14 16 6 11 15 17 22 19 11 10 19 15 21 19 18 15 12 6 4 4 4 2 1 3 4 5 6 6 7 9 10 11 13 14 12 9 9 8 8 7 9 10 10
8 8 5 5 6 9 11 13 7 16 5 13 18 17 14 12 19 18 18 nan nan nan 11 6 5 5 3 3 2 4 4 6 6 6 10 10 9 11 13 14 11 11 10 7 8 8 6 10 12
12 8 5 11 8 nan 34 10 13 13 9 16 19 12 19 18 21 18 15 nan nan nan 11 6 5 4 2 1 2 3 3 4 6 11 13 14 12 11 13 14 13 13 13 11 11 11 10 15 19
8 9 12 6 10 20 30 9 13 9 14 12 4 21 26 25 18 17 nan nan 20 nan 9 9 9 5 3 1 3 3 4 6 9 11 13 14 12 13 13 8 13 13 14 13 12 7 12 16 20
nan 11 10 14 5 nan 7 16 15 15 22 17 21 25 28 24 17 19 nan nan 19 nan nan 8 10 3 6 1 7 6 7 9 12 11 9 14 13 12 8 10 10 12 12 9 5 0 12 22 14
nan nan 17 24 17 15 9 16 18 25 17 19 27 27 30 25 19 nan nan nan nan nan nan 10 9 4 2 3 10 8 9 8 8 11 10 9 9 11 10 8 8 7 13 11 14 7 19 18 17
nan nan nan nan 9 17 25 9 23 28 22 2 22 29 26 23 23 nan nan nan nan nan nan 12 6 8 6 7 11 8 9 6 7 4 11 6 2 13 12 8 7 9 13 11 6 13 8 11 15
nan nan nan 12 3 13 nan 19 nan 15 nan 13 27 26 27 22 nan nan nan nan nan nan nan 12 6 9 9 14 15 12 14 7 4 6 8 6 7 10 6 9 1 7 8 10 10 14 14 15 7
nan nan nan 14 8 16 10 5 2 22 13 17 25 23 23 22 nan 15 nan nan nan nan 12 13 8 11 10 13 12 17 10 10 7 5 8 12 7 2 2 4 0 8 3 9 7 5 7 8 2
nan nan nan nan 11 5 12 17 24 28 9 28 25 22 20 13 18 14 17 nan nan nan 14 12 9 9 12 16 14 12 7 5 7 6 4 4 7 3 6 8 2 7 10 7 9 11 5 5 8
nan nan nan nan nan 11 8 5 9 26 23 26 24 19 17 13 18 14 17 nan nan nan 13 9 nan 7 10 12 14 13 7 6 2 5 5 4 6 1 2 9 8 11 6 9 11 11 6 9 3
nan nan nan nan nan 10 9 24 26 32 19 14 19 21 18 12 15 14 19 nan nan 14 12 8 9 8 6 7 11 9 3 6 5 7 3 6 4 7 10 7 11 9 7 11 10 nan 9 9 5
nan nan nan nan nan nan 15 36 35 nan 8 26 20 21 20 19 14 15 18 nan nan 17 13 9 11 11 8 6 8 9 9 8 9 5 1 4 3 7 11 16 13 4 7 11 7 7 10 9 9
nan nan nan nan nan nan nan 42 nan 18 8 18 22 18 20 16 11 15 17 nan 18 17 12 8 9 12 10 6 8 9 8 7 4 3 10 7 2 2 10 17 16 5 8 13 15 9 7 7 8
nan nan nan nan nan nan 33 30 nan nan nan 28 13 15 20 23 16 19 17 nan nan 15 12 9 9 14 11 9 9 11 10 7 9 2 8 4 9 5 12 12 14 8 9 13 7 10 12 9 9
nan nan nan nan nan nan nan nan nan nan nan 38 17 13 13 22 21 22 17 19 14 15 13 9 9 15 11 9 8 11 11 14 5 3 4 6 8 9 12 5 9 9 6 6 5 8 7 9 11
nan nan nan nan nan nan nan 22 nan nan 32 nan 35 18 12 16 18 20 23 19 16 15 13 12 11 15 12 8 8 9 10 9 8 6 4 2 4 8 10 6 8 8 6 5 8 7 6 6 7
nan nan nan nan nan nan nan nan 33 46 nan nan nan 3 15 11 16 19 21 18 18 20 14 13 13 14 14 8 9 9 10 10 7 5 2 3 5 7 7 6 6 6 6 6 9 3 2 4 5
nan nan nan nan nan nan nan nan nan 44 32 nan nan 13 22 15 15 21 18 16 16 18 17 15 13 12 14 10 7 9 7 12 10 8 8 5 4 7 9 2 3 6 7 3 4 3 5 5 5
nan nan nan nan nan nan nan nan nan nan 36 nan nan 11 23 24 16 21 24 18 14 20 19 16 16 13 12 11 7 10 7 9 14 12 8 4 5 2 1 3 4 2 4 4 3 3 4 1 3
nan nan nan nan nan nan nan nan nan nan 27 33 38 19 nan 25 19 19 25 19 13 18 20 16 18 16 14 13 7 10 9 10 13 14 12 11 7 5 5 5 6 4 2 4 5 3 4 2 2
nan nan nan nan nan nan nan nan nan nan nan 30 36 nan nan 38 20 20 18 18 20 17 19 19 18 17 15 13 14 11 11 8 10 13 15 13 13 14 12 8 6 4 6 5 3 5 6 3 0
nan nan nan nan nan nan nan nan nan nan nan nan 46 52 38 nan 38 38 21 17 14 17 17 17 16 19 17 16 16 15 11 9 12 10 12 13 14 13 13 10 9 6 2 2 4 6 7 6 4
nan nan nan nan nan nan nan nan nan nan nan nan 52 57 nan nan nan 37 38 10 18 18 17 18 14 19 19 18 16 16 15 11 10 12 9 10 12 16 15 14 12 9 4 3 3 3 3 10 7
nan nan nan nan nan nan nan nan nan nan nan nan nan 41 38 nan nan nan nan 14 26 22 18 17 17 15 17 18 19 16 17 16 11 9 11 10 12 12 16 15 14 11 7 5 4 4 4 10 8
Wind_Direction
nan nan nan nan 135 67 160 248 278 250 223 nan 238 247 252 19 114 300 318 341 337 353 351 30 34 20 14 57 113 120 118 105 107 105 105 101 295 301 300 286 277 283 281 267 265 265 278 300 289
nan nan nan 147 103 119 233 217 224 224 257 nan 258 262 237 249 261 294 310 337 341 342 359 9 30 1 348 38 104 93 90 86 93 108 123 318 304 327 316 279 283 269 275 268 271 286 283 289 292
nan nan 114 42 118 nan 155 227 125 235 nan 279 260 214 214 255 286 298 317 331 347 348 330 339 13 350 5 354 354 124 108 113 55 32 69 351 355 356 331 324 300 285 260 261 254 297 311 310 310
58 87 109 91 94 36 310 329 83 262 254 261 280 254 258 282 282 303 322 339 nan nan 308 343 353 345 321 289 284 272 79 37 17 29 33 24 7 358 344 337 339 318 319 353 69 72 24 348 19
167 90 83 59 54 299 320 320 288 288 275 274 267 270 227 232 293 319 336 347 nan 299 317 330 358 336 312 306 275 343 43 33 48 40 33 33 27 18 25 21 31 46 56 82 88 76 41 49 78
163 96 103 121 267 295 316 269 246 289 262 272 277 276 246 262 295 317 344 335 309 312 312 330 349 324 288 288 330 25 43 38 56 48 36 40 26 33 42 49 61 84 92 100 104 78 57 56 76
122 134 96 139 151 117 293 311 279 241 353 288 303 284 284 300 304 331 343 nan nan nan 313 317 332 335 292 281 35 43 63 71 52 38 42 41 44 44 51 60 68 69 65 67 58 42 53 53 61
134 167 182 26 307 nan 137 263 271 291 141 308 301 295 316 309 315 342 331 nan nan nan 326 321 325 350 356 55 49 73 71 61 54 40 50 52 46 44 47 53 53 49 51 43 43 33 27 43 61
171 156 165 196 3 339 47 299 265 327 301 310 295 304 311 313 316 333 nan nan 300 nan 331 334 333 21 205 148 98 104 87 63 55 67 75 71 91 57 53 57 39 28 45 45 41 41 51 52 64
nan 150 161 182 243 nan 328 301 318 290 271 275 262 284 308 317 314 321 nan nan 318 nan nan 346 290 360 28 177 91 109 85 81 80 85 89 102 118 88 56 29 29 23 28 32 42 225 107 72 75
nan nan 217 121 132 3 19 294 273 302 298 304 297 305 314 312 314 nan nan nan nan nan nan 294 315 78 75 147 108 122 109 105 114 115 149 90 112 107 89 48 39 41 44 35 26 299 69 82 72
nan nan nan nan 179 287 221 196 160 262 244 334 302 311 312 321 318 nan nan nan nan nan nan 280 272 129 228 133 121 136 119 125 97 127 99 161 133 103 86 65 38 3 57 62 28 43 53 54 69
nan nan nan 268 326 266 nan 246 nan 288 nan 351 302 313 317 322 nan nan nan nan nan nan nan 277 255 168 160 173 151 156 128 133 179 130 178 163 62 62 55 55 359 83 80 49 50 37 41 68 83
nan nan nan 252 234 304 322 298 92 298 37 313 304 316 320 330 nan 321 nan nan nan nan 274 268 251 180 169 175 148 143 175 183 181 157 290 77 112 92 62 128 178 42 65 97 110 83 51 68 37
nan nan nan nan 263 305 263 222 241 262 297 305 310 324 321 338 323 319 307 nan nan nan 268 272 246 168 190 173 151 164 176 191 177 173 176 238 130 155 224 81 83 100 98 75 119 94 58 69 50
nan nan nan nan nan 272 287 298 241 281 289 310 317 326 327 342 324 319 308 nan nan nan 267 279 nan 184 202 172 156 180 190 160 204 152 149 140 105 78 287 113 111 69 88 99 100 119 119 87 94
nan nan nan nan nan 298 292 245 248 212 149 322 326 332 342 337 334 333 314 nan nan 294 270 263 220 199 217 185 161 155 198 175 154 140 125 58 53 167 162 60 90 59 122 107 104 nan 113 122 135
nan nan nan nan nan nan 302 253 267 nan 145 315 317 322 343 355 341 334 311 nan nan 296 272 258 213 212 209 202 168 172 154 174 148 164 118 72 197 105 144 110 84 98 91 119 113 141 127 144 140
nan nan nan nan nan nan nan 275 nan 208 213 221 293 318 340 350 346 316 302 nan 299 296 282 262 207 224 207 196 161 148 154 162 96 214 119 89 62 104 98 101 101 112 92 80 105 81 115 117 118
nan nan nan nan nan nan 266 270 nan nan nan 206 299 329 336 332 1 320 315 nan nan 293 287 259 215 224 217 214 169 161 184 184 156 142 80 104 104 63 60 86 121 108 80 69 89 111 105 112 106
nan nan nan nan nan nan nan nan nan nan nan 174 105 309 338 338 358 327 327 317 308 291 296 263 238 226 222 201 185 167 174 178 165 192 164 142 118 116 127 125 125 101 115 112 75 57 58 90 86
nan nan nan nan nan nan nan 265 nan nan 275 nan 150 298 353 342 351 333 334 324 317 282 283 274 249 230 214 194 203 178 172 182 155 173 157 170 132 124 124 125 110 115 95 66 76 73 45 43 86
nan nan nan nan nan nan nan nan 280 306 nan nan nan 15 344 348 345 340 341 330 316 291 277 273 259 236 222 209 197 197 169 162 182 196 211 222 161 133 105 114 112 86 85 78 75 36 87 87 53
nan nan nan nan nan nan nan nan nan 287 290 nan nan 105 325 326 333 326 327 323 328 304 287 281 275 255 234 227 196 202 187 165 182 193 222 223 177 151 130 125 106 113 111 49 44 68 77 107 163
nan nan nan nan nan nan nan nan nan nan 302 nan nan 140 314 307 307 312 323 326 338 333 317 287 292 280 265 256 221 194 216 167 170 187 205 203 193 174 117 252 270 129 87 50 343 48 110 114 153
nan nan nan nan nan nan nan nan nan nan 311 306 303 235 nan 300 292 301 320 326 338 343 337 312 291 286 280 266 251 221 215 191 190 178 190 196 186 215 278 258 291 323 35 53 354 30 69 26 246
nan nan nan nan nan nan nan nan nan nan nan 307 291 nan nan 170 250 280 296 311 308 316 330 327 292 277 274 270 251 245 220 203 206 192 191 196 186 199 271 277 264 302 345 27 359 71 42 41 322
nan nan nan nan nan nan nan nan nan nan nan nan 271 276 278 nan 197 185 259 290 297 304 304 309 304 283 269 266 252 249 244 227 215 216 204 199 200 198 247 274 278 273 263 325 339 76 17 14 14
nan nan nan nan nan nan nan nan nan nan nan nan 270 270 nan nan nan 182 162 249 302 294 299 311 304 293 271 268 263 256 257 249 222 222 225 232 201 210 232 234 247 268 276 217 261 88 94 1 14
nan nan nan nan nan nan nan nan nan nan nan nan nan 292 291 nan nan nan nan 94 301 301 301 322 308 309 283 260 259 259 254 262 255 233 250 239 235 230 225 247 248 252 253 249 245 334 48 343 350